Carnival Glory — 3FPS9 — position and weather

sailwx.info

Track history (hours):
 
Tides and Currents Weather Stations Pressure Air Temp Water Temp Dewpoint Dewpoint Depression Visibility Wind Speed Wind Dir Waves Ship Positions

Carnival Glory

Operator: Carnival Cruise Lines

Last reported at 2017-Nov-19 00:15 UTC. Time now 2017-Nov-19 14:16 UTC.
Position N 25°19' W 079°57'.

Type: Passenger vessel. MMSI: 357659000.

Date/timePositionNaut miles runAvg speedWind from/ knotsBaromVisibWave heightAir tempDewpointWater temp
2017-Nov-19 00:15N 25°19' W 079°57'416.3
2017-Nov-19 00:00N 25°23' W 079°56'816.4
2017-Nov-18 23:30N 25°31' W 079°56'816.0
2017-Nov-18 23:00N 25°39' W 079°57'815.3
2017-Nov-18 22:30N 25°45' W 080°02'510.1
2017-Nov-18 22:00N 25°46' W 080°08'2 4.6
2017-Nov-18 21:29N 25°47' W 080°10'0 0.0
2017-Nov-18 20:59N 25°47' W 080°10'0 0.0
2017-Nov-18 20:29N 25°47' W 080°10'0 0.0
2017-Nov-18 19:59N 25°47' W 080°10'0 0.0
2017-Nov-18 19:29N 25°47' W 080°10'0 0.0
2017-Nov-18 18:59N 25°47' W 080°10'0 0.0
2017-Nov-18 18:23N 25°47' W 080°10'0 0.0
2017-Nov-18 17:59N 25°47' W 080°10'0 0.0
2017-Nov-18 17:20N 25°47' W 080°10'0 0.0
2017-Nov-18 16:59N 25°47' W 080°10'0 0.0
2017-Nov-18 16:26N 25°47' W 080°10'0 0.0
2017-Nov-18 15:59N 25°47' W 080°10'0 0.0
2017-Nov-18 15:26N 25°47' W 080°10'0 0.0
2017-Nov-18 14:59N 25°47' W 080°10'0 0.0
2017-Nov-18 14:29N 25°47' W 080°10'0 0.0
2017-Nov-18 13:59N 25°47' W 080°10'0 0.0
2017-Nov-18 13:26N 25°47' W 080°10'0 0.0
2017-Nov-18 12:56N 25°47' W 080°10'0 0.0
2017-Nov-18 12:26N 25°47' W 080°10'0 0.0
2017-Nov-18 11:56N 25°47' W 080°10'0 0.0
2017-Nov-18 11:29N 25°47' W 080°10'0 0.0
2017-Nov-18 11:00N 25°47' W 080°10'0 0.0
2017-Nov-18 10:30N 25°47' W 080°10'0 0.8
2017-Nov-18 10:00N 25°47' W 080°11'1 2.8
2017-Nov-18 09:30N 25°46' W 080°09'510.4
2017-Nov-18 09:00N 25°46' W 080°03'4 8.7
2017-Nov-18 08:30N 25°48' W 079°59'5 9.4
2017-Nov-18 08:00N 25°51' W 079°55'510.0
2017-Nov-18 07:30N 25°53' W 079°50'510.4
2017-Nov-18 07:00N 25°56' W 079°45'510.8
2017-Nov-18 06:30N 25°59' W 079°40'511.0
2017-Nov-18 06:00N 26°02' W 079°35'611.3
2017-Nov-18 05:30N 26°05' W 079°29'8114.7
2017-Nov-18 00:00N 25°54' W 078°00'37417.8 030 / 241014.710.8 26.023.127.0
2017-Nov-17 03:00N 22°36' W 072°12'139 6.1 060 / 121009.910.8 26.024.628.0
2017-Nov-16 04:00N 20°24' W 071°24'89 3.5 080 / 101008.9 27.025.628.0
2017-Nov-15 03:00N 21°48' W 070°54'4113.7 220 / 51007.9 25.023.526.0
2017-Nov-15 00:00N 22°12' W 071°30'33716.1 070 / 151007.910.8 25.022.027.0
2017-Nov-14 03:00N 25°36' W 076°24'156 3.2 050 / 201013.910.8 26.021.526.0
2017-Nov-12 01:30N 26°11' W 079°13'1019.7
2017-Nov-12 01:00N 26°08' W 079°23'919.0
2017-Nov-12 00:30N 26°03' W 079°32'1020.2
2017-Nov-12 00:00N 25°58' W 079°42'1020.6
2017-Nov-11 23:30N 25°53' W 079°52'1019.2
2017-Nov-11 23:00N 25°48' W 080°01'510.1
2017-Nov-11 22:31N 25°46' W 080°06'4 7.9
2017-Nov-11 22:00N 25°47' W 080°10'0 0.0
2017-Nov-11 21:24N 25°47' W 080°10'0 0.0
2017-Nov-11 21:00N 25°47' W 080°10'0 0.0
2017-Nov-11 20:30N 25°47' W 080°10'0 0.0
2017-Nov-11 20:00N 25°47' W 080°10'0 0.0
2017-Nov-11 19:30N 25°47' W 080°10'0 0.0
2017-Nov-11 19:00N 25°47' W 080°10'0 0.0
2017-Nov-11 18:21N 25°47' W 080°10'0 0.0
2017-Nov-11 17:57N 25°47' W 080°10'0 0.0
2017-Nov-11 17:30N 25°47' W 080°10'0 0.0
2017-Nov-11 16:54N 25°47' W 080°10'0 0.0
2017-Nov-11 16:24N 25°47' W 080°10'0 0.0
2017-Nov-11 16:01N 25°47' W 080°10'0 0.0
2017-Nov-11 15:31N 25°47' W 080°10'0 0.0
2017-Nov-11 15:00N 25°47' W 080°10'0 0.0
2017-Nov-11 14:30N 25°47' W 080°10'0 0.0
2017-Nov-11 14:00N 25°47' W 080°10'0 0.0
2017-Nov-11 13:31N 25°47' W 080°10'0 0.0
2017-Nov-11 13:00N 25°47' W 080°10'0 0.0
2017-Nov-11 12:30N 25°47' W 080°10'0 0.0
2017-Nov-11 12:00N 25°47' W 080°10'0 0.0
2017-Nov-11 11:31N 25°47' W 080°10'0 0.0
2017-Nov-11 11:00N 25°47' W 080°10'0 0.0
2017-Nov-11 10:30N 25°47' W 080°10'1 1.7
2017-Nov-11 10:00N 25°47' W 080°11'3 6.2
2017-Nov-11 09:30N 25°46' W 080°08'510.0
2017-Nov-11 09:00N 25°47' W 080°02'4 8.5
2017-Nov-11 08:31N 25°43' W 079°59'714.7
2017-Nov-11 08:00N 25°37' W 079°56'917.1
2017-Nov-11 07:30N 25°28' W 079°55'816.5
2017-Nov-11 07:00N 25°20' W 079°56'2516.2
2017-Nov-11 05:27N 24°57' W 080°06'816.8
2017-Nov-11 05:00N 24°51' W 080°12'916.9
2017-Nov-11 04:30N 24°45' W 080°19'816.7
2017-Nov-11 04:00N 24°39' W 080°25'816.7
2017-Nov-11 03:30N 24°32' W 080°31'1019.2
2017-Nov-11 03:00N 24°24' W 080°36'2982.0 070 / 751014.910.8 26.023.127.0
2017-Nov-11 02:59N 24°26' W 080°37'16214.8
2017-Nov-10 16:00N 23°18' W 083°18'17213.3 040 / 231013.910.8 26.023.128.0
2017-Nov-10 03:00N 24°24' W 086°12'22564.7 010 / 251013.410.8 27.022.630.0
2017-Nov-09 23:31N 20°42' W 086°51'116.6
2017-Nov-09 23:29N 20°42' W 086°51'816.1
2017-Nov-09 23:00N 20°36' W 086°56'510.8
2017-Nov-09 22:30N 20°31' W 086°59'2 4.0
2017-Nov-09 21:59N 20°29' W 086°59'0 0.0
2017-Nov-09 21:29N 20°29' W 086°59'0 0.0
2017-Nov-09 20:59N 20°29' W 086°59'0 0.0
2017-Nov-09 20:29N 20°29' W 086°59'0 0.0
2017-Nov-09 19:56N 20°29' W 086°59'0 0.0
2017-Nov-09 19:26N 20°29' W 086°59'0 0.0
2017-Nov-09 18:59N 20°29' W 086°59'0 0.0
2017-Nov-09 18:29N 20°29' W 086°59'0 0.0
2017-Nov-09 17:59N 20°29' W 086°59'0 0.0
2017-Nov-09 17:29N 20°29' W 086°59'0 0.0
2017-Nov-09 16:59N 20°29' W 086°59'0 0.0
2017-Nov-09 16:29N 20°29' W 086°59'0 0.0
2017-Nov-09 15:59N 20°29' W 086°59'0 0.0
2017-Nov-09 15:29N 20°29' W 086°59'0 0.0
2017-Nov-09 14:59N 20°29' W 086°59'0 0.0
2017-Nov-09 14:29N 20°29' W 086°59'0 0.0
2017-Nov-09 13:59N 20°29' W 086°59'0 0.0
2017-Nov-09 13:26N 20°29' W 086°59'0 0.0
2017-Nov-09 12:59N 20°29' W 086°59'0 0.1
2017-Nov-09 12:30N 20°29' W 086°59'2 3.7
2017-Nov-09 12:00N 20°30' W 087°00'5 9.7
2017-Nov-09 11:30N 20°27' W 087°04'612.3
2017-Nov-09 11:00N 20°21' W 087°06'12317.5
2017-Nov-09 04:00N 18°18' W 087°06'   360 / 151012.910.8 27.022.630.0
Track history (hours):
 
Tides and Currents Weather Stations Pressure Air Temp Water Temp Dewpoint Dewpoint Depression Visibility Wind Speed Wind Dir Waves Ship Positions

Carnival Glory

Operator: Carnival Cruise Lines

Last reported at 2017-Nov-19 00:15 UTC. Time now 2017-Nov-19 14:16 UTC.
Position N 25°19' W 079°57'.

Type: Passenger vessel. MMSI: 357659000.

Date/timePositionNaut miles runAvg speedWind from/ knotsBaromVisibWave heightAir tempDewpointWater temp
2017-Nov-19 00:15N 25°19' W 079°57'416.3
2017-Nov-19 00:00N 25°23' W 079°56'816.4
2017-Nov-18 23:30N 25°31' W 079°56'816.0
2017-Nov-18 23:00N 25°39' W 079°57'815.3
2017-Nov-18 22:30N 25°45' W 080°02'510.1
2017-Nov-18 22:00N 25°46' W 080°08'2 4.6
2017-Nov-18 21:29N 25°47' W 080°10'0 0.0
2017-Nov-18 20:59N 25°47' W 080°10'0 0.0
2017-Nov-18 20:29N 25°47' W 080°10'0 0.0
2017-Nov-18 19:59N 25°47' W 080°10'0 0.0
2017-Nov-18 19:29N 25°47' W 080°10'0 0.0
2017-Nov-18 18:59N 25°47' W 080°10'0 0.0
2017-Nov-18 18:23N 25°47' W 080°10'0 0.0
2017-Nov-18 17:59N 25°47' W 080°10'0 0.0
2017-Nov-18 17:20N 25°47' W 080°10'0 0.0
2017-Nov-18 16:59N 25°47' W 080°10'0 0.0
2017-Nov-18 16:26N 25°47' W 080°10'0 0.0
2017-Nov-18 15:59N 25°47' W 080°10'0 0.0
2017-Nov-18 15:26N 25°47' W 080°10'0 0.0
2017-Nov-18 14:59N 25°47' W 080°10'0 0.0
2017-Nov-18 14:29N 25°47' W 080°10'0 0.0
2017-Nov-18 13:59N 25°47' W 080°10'0 0.0
2017-Nov-18 13:26N 25°47' W 080°10'0 0.0
2017-Nov-18 12:56N 25°47' W 080°10'0 0.0
2017-Nov-18 12:26N 25°47' W 080°10'0 0.0
2017-Nov-18 11:56N 25°47' W 080°10'0 0.0
2017-Nov-18 11:29N 25°47' W 080°10'0 0.0
2017-Nov-18 11:00N 25°47' W 080°10'0 0.0
2017-Nov-18 10:30N 25°47' W 080°10'0 0.8
2017-Nov-18 10:00N 25°47' W 080°11'1 2.8
2017-Nov-18 09:30N 25°46' W 080°09'510.4
2017-Nov-18 09:00N 25°46' W 080°03'4 8.7
2017-Nov-18 08:30N 25°48' W 079°59'5 9.4
2017-Nov-18 08:00N 25°51' W 079°55'510.0
2017-Nov-18 07:30N 25°53' W 079°50'510.4
2017-Nov-18 07:00N 25°56' W 079°45'510.8
2017-Nov-18 06:30N 25°59' W 079°40'511.0
2017-Nov-18 06:00N 26°02' W 079°35'611.3
2017-Nov-18 05:30N 26°05' W 079°29'8114.7
2017-Nov-18 00:00N 25°54' W 078°00'37417.8 030 / 241014.710.8 26.023.127.0
2017-Nov-17 03:00N 22°36' W 072°12'139 6.1 060 / 121009.910.8 26.024.628.0
2017-Nov-16 04:00N 20°24' W 071°24'89 3.5 080 / 101008.9 27.025.628.0
2017-Nov-15 03:00N 21°48' W 070°54'4113.7 220 / 51007.9 25.023.526.0
2017-Nov-15 00:00N 22°12' W 071°30'33716.1 070 / 151007.910.8 25.022.027.0
2017-Nov-14 03:00N 25°36' W 076°24'156 3.2 050 / 201013.910.8 26.021.526.0
2017-Nov-12 01:30N 26°11' W 079°13'1019.7
2017-Nov-12 01:00N 26°08' W 079°23'919.0
2017-Nov-12 00:30N 26°03' W 079°32'1020.2
2017-Nov-12 00:00N 25°58' W 079°42'1020.6
2017-Nov-11 23:30N 25°53' W 079°52'1019.2
2017-Nov-11 23:00N 25°48' W 080°01'510.1
2017-Nov-11 22:31N 25°46' W 080°06'4 7.9
2017-Nov-11 22:00N 25°47' W 080°10'0 0.0
2017-Nov-11 21:24N 25°47' W 080°10'0 0.0
2017-Nov-11 21:00N 25°47' W 080°10'0 0.0
2017-Nov-11 20:30N 25°47' W 080°10'0 0.0
2017-Nov-11 20:00N 25°47' W 080°10'0 0.0
2017-Nov-11 19:30N 25°47' W 080°10'0 0.0
2017-Nov-11 19:00N 25°47' W 080°10'0 0.0
2017-Nov-11 18:21N 25°47' W 080°10'0 0.0
2017-Nov-11 17:57N 25°47' W 080°10'0 0.0
2017-Nov-11 17:30N 25°47' W 080°10'0 0.0
2017-Nov-11 16:54N 25°47' W 080°10'0 0.0
2017-Nov-11 16:24N 25°47' W 080°10'0 0.0
2017-Nov-11 16:01N 25°47' W 080°10'0 0.0
2017-Nov-11 15:31N 25°47' W 080°10'0 0.0
2017-Nov-11 15:00N 25°47' W 080°10'0 0.0
2017-Nov-11 14:30N 25°47' W 080°10'0 0.0
2017-Nov-11 14:00N 25°47' W 080°10'0 0.0
2017-Nov-11 13:31N 25°47' W 080°10'0 0.0
2017-Nov-11 13:00N 25°47' W 080°10'0 0.0
2017-Nov-11 12:30N 25°47' W 080°10'0 0.0
2017-Nov-11 12:00N 25°47' W 080°10'0 0.0
2017-Nov-11 11:31N 25°47' W 080°10'0 0.0
2017-Nov-11 11:00N 25°47' W 080°10'0 0.0
2017-Nov-11 10:30N 25°47' W 080°10'1 1.7
2017-Nov-11 10:00N 25°47' W 080°11'3 6.2
2017-Nov-11 09:30N 25°46' W 080°08'510.0
2017-Nov-11 09:00N 25°47' W 080°02'4 8.5
2017-Nov-11 08:31N 25°43' W 079°59'714.7
2017-Nov-11 08:00N 25°37' W 079°56'917.1
2017-Nov-11 07:30N 25°28' W 079°55'816.5
2017-Nov-11 07:00N 25°20' W 079°56'2516.2
2017-Nov-11 05:27N 24°57' W 080°06'816.8
2017-Nov-11 05:00N 24°51' W 080°12'916.9
2017-Nov-11 04:30N 24°45' W 080°19'816.7
2017-Nov-11 04:00N 24°39' W 080°25'816.7
2017-Nov-11 03:30N 24°32' W 080°31'1019.2
2017-Nov-11 03:00N 24°24' W 080°36'2982.0 070 / 751014.910.8 26.023.127.0
2017-Nov-11 02:59N 24°26' W 080°37'16214.8
2017-Nov-10 16:00N 23°18' W 083°18'17213.3 040 / 231013.910.8 26.023.128.0
2017-Nov-10 03:00N 24°24' W 086°12'22564.7 010 / 251013.410.8 27.022.630.0
2017-Nov-09 23:31N 20°42' W 086°51'116.6
2017-Nov-09 23:29N 20°42' W 086°51'816.1
2017-Nov-09 23:00N 20°36' W 086°56'510.8
2017-Nov-09 22:30N 20°31' W 086°59'2 4.0
2017-Nov-09 21:59N 20°29' W 086°59'0 0.0
2017-Nov-09 21:29N 20°29' W 086°59'0 0.0
2017-Nov-09 20:59N 20°29' W 086°59'0 0.0
2017-Nov-09 20:29N 20°29' W 086°59'0 0.0
2017-Nov-09 19:56N 20°29' W 086°59'0 0.0
2017-Nov-09 19:26N 20°29' W 086°59'0 0.0
2017-Nov-09 18:59N 20°29' W 086°59'0 0.0
2017-Nov-09 18:29N 20°29' W 086°59'0 0.0
2017-Nov-09 17:59N 20°29' W 086°59'0 0.0
2017-Nov-09 17:29N 20°29' W 086°59'0 0.0
2017-Nov-09 16:59N 20°29' W 086°59'0 0.0
2017-Nov-09 16:29N 20°29' W 086°59'0 0.0
2017-Nov-09 15:59N 20°29' W 086°59'0 0.0
2017-Nov-09 15:29N 20°29' W 086°59'0 0.0
2017-Nov-09 14:59N 20°29' W 086°59'0 0.0
2017-Nov-09 14:29N 20°29' W 086°59'0 0.0
2017-Nov-09 13:59N 20°29' W 086°59'0 0.0
2017-Nov-09 13:26N 20°29' W 086°59'0 0.0
2017-Nov-09 12:59N 20°29' W 086°59'0 0.1
2017-Nov-09 12:30N 20°29' W 086°59'2 3.7
2017-Nov-09 12:00N 20°30' W 087°00'5 9.7
2017-Nov-09 11:30N 20°27' W 087°04'612.3
2017-Nov-09 11:00N 20°21' W 087°06'12317.5
2017-Nov-09 04:00N 18°18' W 087°06'   360 / 151012.910.8 27.022.630.0

Dump ship's entire track history